Regional Weather Roundup
Issued by NWS

Home | Current Version | Previous Version | Text Only | Print | Product List | Glossary On
Versions: 1 2 3 4 5 6 7 8 9 10 11 12 13 14 15 16 17 18 19 20 21 22 23 24 25 26 27 28 29 30 31 32 33 34 35 36 37 38 39 40 41 42 43 44 45 46 47 48 49 50
000
ASUS43 KDTX 181410
RWRMI
MICHIGAN HOURLY REGIONAL WEATHER ROUNDUP
NATIONAL WEATHER SERVICE DETROIT/PONTIAC MI
1000 AM EDT THU SEP 18 2014

NOTE: "FAIR" INDICATES FEW OR NO CLOUDS BELOW 12,000 FEET WITH NO
SIGNIFICANT WEATHER AND/OR OBSTRUCTION TO VISIBILITY.

MIZ047>049-052>055-059>063-066>070-074>076-081>083-181500-
SOUTHEAST LOWER MICHIGAN

CITY           SKY/WX    TMP DP  RH WIND       PRES   REMARKS
ADRIAN         MOSUNNY   57  51  80 E5        30.14R
ALMA           CLOUDY    52  49  92 NE5       30.16R
ANN ARBOR      MOSUNNY   59  51  75 NE5       30.12R
BAD AXE        CLOUDY    50  49  95 NE9       30.17R
CARO           CLOUDY    52  50  93 N5        30.15R
DETROIT CITY   SUNNY     62  51  67 NE6       30.13R
DETROIT        MOSUNNY   59  52  77 N6        30.13R
FLINT          PTSUNNY   57  51  80 NE5       30.15R
GROSSE ILE     SUNNY     61  54  77 NE6       30.11R
HILLSDALE      SUNNY     57  53  88 NE3       30.13R
HOWELL         CLOUDY    51  51  99 E5        30.14R FOG

CITY           SKY/WX    TMP DP  RH WIND       PRES   REMARKS
JACKSON        SUNNY     55  51  86 NE6       30.13R
LAMBERTVILLE   SUNNY     57  52  82 NE3       30.13R
LANSING        PTSUNNY   53  49  86 NE5       30.16R
LAPEER         CLOUDY    52  51  96 N3        30.15R
MASON          PTSUNNY   54  53  96 NE7       30.14R
MONROE         SUNNY     57  54  88 NE6       30.10R
MT. CLEMENS    MOSUNNY   58  52  80 N9        30.10R
PONTIAC        SUNNY     57  50  77 NE8       30.13R
PORT HOPE        N/A     52  44  74 NE15      30.15R
PORT HURON     SUNNY     57  54  88 N6        30.12R
TRI CITIES     CLOUDY    55  51  86 NE9       30.17R
TROY           SUNNY     59  51  74 N6        30.14R
SAGINAW HB     CLOUDY    54  54 100 NE12      30.15R
$$
MIZ043>046-050>051-056>058-064>065-071>073-077>080-181500-
SOUTHWEST LOWER MICHIGAN

CITY           SKY/WX    TMP DP  RH WIND       PRES   REMARKS
BATTLE CREEK   SUNNY     55  49  80 E7        30.14R
BENTON HARBOR  SUNNY     57  49  74 SE7       30.13R
BIG RAPIDS     CLOUDY    51  50  98 CALM      30.16R
COLDWATER      SUNNY     56  53  89 E3        30.13S
FREMONT        CLOUDY    54  50  86 E7        30.15R
HOLLAND        MOSUNNY   57  50  77 E7        30.15R
GRAND RAPIDS   PTSUNNY   52  52 100 E7        30.15R FOG
IONIA          CLOUDY    53  52  98 SE6       30.14R FOG
KALAMAZOO      SUNNY     56  48  74 E3        30.15R
LUDINGTON      CLOUDY    53  49  87 NE5       30.16S
MARSHALL       CLOUDY    51  50  96 CALM      30.14R FOG
MOUNT PLEASANT CLOUDY    50  49  97 NE6       30.16R FOG
MUSKEGON       CLOUDY    55  50  83 E5        30.15R
SOUTH HAVEN    SUNNY     57  51  80 NE9       30.14R
$$
MIZ016>042-181500-
NORTHERN LOWER MICHIGAN

CITY           SKY/WX    TMP DP  RH WIND       PRES   REMARKS
ALPENA         CLOUDY    46  36  68 NE7       30.21R
BEAVER ISLAND  CLOUDY    47  39  74 NE6       30.21R
BELLAIRE       CLOUDY    49  42  75 NE5       30.19R
CADILLAC       CLOUDY    48  47  99 E6        30.15S
CHARLEVOIX     CLOUDY    50  39  67 E9        30.22R
FRANKFORT      MOSUNNY   54  45  70 CALM      30.16R
GAYLORD        CLOUDY    44  39  82 E6        30.18R
GRAYLING       CLOUDY    46  44  93 E9        30.19R
HARBOR SPRINGS CLOUDY    48  39  70 NE8       30.20R
HOUGHTON LAKE  CLOUDY    48  45  89 E13       30.17S
MANISTEE       CLOUDY    52  45  76 E6        30.17R
OSCODA         CLOUDY    48  43  84 N13       30.18S
PELLSTON       CLOUDY    46  39  76 NE10      30.21R
ROGERS CITY    CLOUDY    46  38  74 E8        30.23R
TRAVERSE CITY  PTSUNNY   53  43  68 E9        30.17R
$$
MIZ007>008-015-181500-
EASTERN UPPER MICHIGAN

CITY           SKY/WX    TMP DP  RH WIND       PRES   REMARKS
KINROSS        SUNNY     41  36  81 NE9       30.23S
MACKINAC ISLAN CLOUDY    45  38  77 NE10      30.21S
NEWBERRY       MOSUNNY   40  34  78 E5        30.22R
S. S. MARIE    SUNNY     42  33  70 VRB7      30.23S
MUNISING         N/A     46  33  60 E9        30.21S
$$
MIZ004>006-011>014-085-181500-
CENTRAL UPPER MICHIGAN

CITY           SKY/WX    TMP DP  RH WIND       PRES   REMARKS
MANISTIQUE     PTSUNNY   43  35  73 E6        30.21F
ESCANABA       SUNNY     45  34  65 NE7       30.21S
MENOMINEE      CLOUDY    45  36  70 N7        30.19R
SAWYER-GWINN   CLOUDY    43  34  70 E6        30.20R
$$
MIZ001>003-009>011-084-181500-
WESTERN UPPER MICHIGAN

CITY           SKY/WX    TMP DP  RH WIND       PRES   REMARKS
IRON MOUNTAIN  PTSUNNY   43  33  68 VRB7      30.19S
HOUGHTON       CLOUDY    42  34  73 E6        30.19S
COPPER HARBOR    N/A     44  35  70 VRB3      30.22R
IRONWOOD       CLOUDY    39  37  93 E6        30.15S WCI  35
$$

ABBREVIATIONS USED IN REMARKS
   TC - TEMPERATURE IN CELSIUS
  WCI - WIND CHILL INDEX
   HX - HEAT INDEX
  VSB - VISIBILITY



USA.gov is the U.S. government's official web portal to all federal, state and local government web resources and services.